Location: Dominion City
(49.1330°N, 97.1500°W)
Time: 07:54:41
(UTC-05:00)

Daily predictions for brighter satellites

Satellite Brightness Start Highest point End
(mag) Time Altitude Azimuth Time Altitude Azimuth Time Altitude Azimuth
SPOT 1/Viking Rocket 4.4 21:52:36 10° SE 21:57:18 37° ENE 22:02:01 10° N
Cosmos 1371 Rocket 4.1 21:52:00 10° NNW 21:57:22 89° ENE 22:02:40 10° SSE
Tiangong 2 2.6 21:55:14 10° SW 21:57:42 21° SSE 22:00:09 10° ESE
Cosmos 2322 Rocket 4.5 21:56:37 10° N 21:59:35 14° NNE 22:02:34 10° ENE
Okean 2 3.8 21:56:16 10° SSE 22:00:08 42° E 22:04:01 10° NNE
Lacrosse 5 rocket 3.4 21:56:38 10° WNW 22:00:43 30° N 22:04:51 10° ENE
Cosmos 1441 Rocket 3.1 21:58:06 10° S 22:01:50 78° ESE 22:05:36 10° NNE
ARGOS 3.4 21:59:27 10° SSE 22:04:45 58° ENE 22:10:05 10° N
Meteor 1-29 3.4 22:02:53 10° N 22:06:15 66° WNW 22:09:35 10° SSW
Resurs 01 Rocket 4.3 22:04:51 10° SW 22:07:39 16° W 22:10:26 10° NW
ERS-1 Rocket 3.1 22:03:09 10° SSE 22:08:10 83° WSW 22:13:14 10° NNW
Meteor 1-23 Rocket 4.2 22:03:13 10° S 22:08:45 72° E 22:14:23 10° NNE
NOAA 11 4.2 22:06:42 10° SSE 22:12:09 86° ENE 22:17:37 10° NNW
Terra 3.3 22:08:31 10° ESE 22:12:20 24° ENE 22:16:09 10° N
SPOT 5 2.8 22:09:55 10° SSE 22:14:10 62° ENE 22:18:31 10° N
CENTAUR R/B 4.4 22:07:20 10° NW 22:14:10 33° WSW 22:21:23 10° S
H-2A R/B 3.6 22:15:29 10° ESE 22:19:12 25° ENE 22:22:55 10° N
Meteor 1-15 Rocket 4.4 22:17:27 10° NNW 22:23:04 75° W 22:28:36 10° S
Nadezhda 1 Rocket 4.3 22:17:37 10° SSW 22:24:00 76° W 22:30:28 10° N
MetOp-B 4.2 22:19:12 10° SSE 22:24:33 83° WSW 22:29:57 10° NNW
ATLAS CENTAUR R/B 3.7 22:23:44 10° N 22:25:37 13° NNE 22:27:29 10° NE
Cosmos 2278 3.8 22:20:03 10° NNW 22:25:48 87° ENE 22:31:15 11° SSE
COSMOS 2406 4.0 22:21:34 10° SW 22:27:13 58° WNW 22:32:52 10° NNE
Meteor 2-19 Rocket 4.5 22:23:07 10° N 22:29:17 89° E 22:35:27 10° S
Cosmos 2082 Rocket 3.0 22:24:41 10° SSE 22:29:35 31° ESE 22:34:30 10° NE
USA 229 DEB 4.3 22:24:51 10° NW 22:31:48 54° NE 22:38:52 10° ESE
USA 229 4.3 22:24:57 10° NW 22:31:54 54° NE 22:38:58 10° ESE
SL-8 Rocket 4.2 22:26:27 10° N 22:32:39 60° ENE 22:38:28 12° SSE
MOS 1-B Rocket 4.3 22:27:21 10° S 22:33:12 74° WSW 22:39:56 10° NNW
ISS -3.8 22:30:07 10° SW 22:33:23 62° SSE 22:36:39 10° ENE
Cosmos 2154 Rocket 4.4 22:28:23 10° NNW 22:34:42 68° W 22:40:59 10° S
Cosmos 2366 rocket 4.4 22:32:23 10° N 22:38:23 50° ENE 22:43:33 14° SSE
SL-24 DEB 4.2 22:35:56 10° S 22:40:33 81° E 22:45:14 10° N
Cosmos 2228 3.0 22:38:18 10° N 22:42:38 77° E 22:46:19 14° SSE
SL-27 R/B 4.3 22:39:58 10° SW 22:43:23 36° WNW 22:46:47 10° N
H-2A R/B 2.0 22:40:27 13° SSE 22:44:56 78° ENE 22:50:03 10° NNW
Cosmos 921 Rocket 3.4 22:40:54 10° NNW 22:45:23 64° WSW 22:49:22 12° S
Cosmos 2369 3.9 22:39:53 10° NNW 22:45:37 70° WSW 22:50:41 13° SSE
USA 234 4.3 22:39:33 10° ENE 22:45:42 45° N 22:51:51 10° WNW
Meteor 1-4 Rocket 2.9 22:42:47 10° N 22:46:21 51° ENE 22:48:46 18° SSE
Cosmos 1697 Rocket 2.8 22:40:44 10° NNW 22:46:21 69° ENE 22:50:57 16° SE
SL-16 R/B 3.9 22:47:32 10° NNW 22:52:06 24° NE 22:56:41 10° E
Cosmos 1656 3.7 22:48:09 10° NNW 22:53:38 81° WSW 22:58:04 16° SSE
SL-08 RB Rocket 3.9 22:50:33 12° S 22:54:44 66° WSW 22:59:12 10° NNW
Cosmos 967 Rocket 4.4 22:49:02 10° SSW 22:55:17 76° SE 23:01:35 10° NE
Cosmos 1437 Rocket 4.3 22:53:04 10° NNW 22:56:29 31° W 22:59:55 10° SSW
Cosmos 1892 Rocket 3.7 22:53:31 10° SSW 22:57:57 76° W 23:02:23 10° N
DMSP B5D2-2 4.3 22:57:08 10° NNE 23:02:19 52° E 23:06:34 15° S
Cosmos 1271 Rocket 3.8 22:58:53 10° N 23:02:26 33° ENE 23:04:38 19° SE
Cosmos 1602 Rocket 4.0 23:01:03 19° SSE 23:03:52 44° E 23:08:00 10° NNE
Cosmos 1833 Rocket 2.8 23:01:10 10° S 23:06:36 54° ESE 23:12:06 10° NE
deb Chang Zheng 4 4.2 23:05:22 10° NNE 23:09:24 37° E 23:11:40 21° SSE
SL-08 R/B 4.4 23:06:38 10° N 23:12:47 84° E 23:17:35 17° S
NOSS 8 (E) 4.5 23:10:04 10° SW 23:13:31 75° SE 23:17:30 10° NE
Timation 2 Rocket 4.4 23:08:52 14° S 23:13:55 42° ESE 23:19:39 10° NE
Cosmos 389 Rocket 4.2 23:13:45 10° NNE 23:16:31 21° ENE 23:17:59 17° ESE
Cosmos 1953 3.7 23:13:31 10° NNE 23:17:01 27° ENE 23:19:02 18° ESE
Cosmos 1420 Rocket 4.0 23:12:36 10° NNW 23:17:55 86° WSW 23:21:26 21° SSE
Cosmos 2218 Rocket 4.1 23:12:53 10° NNW 23:19:03 79° W 23:24:06 16° S
Cosmos 1066 Rocket 4.2 23:16:10 11° S 23:21:28 90° SE 23:27:11 10° NNE
Meteor 2-14 Rocket 4.4 23:15:28 10° N 23:21:34 79° ENE 23:25:54 20° SSE
COSMOS 2487 2.9 23:18:06 10° SSW 23:21:39 63° WNW 23:25:13 10° NNE
Cosmos 1048 Rocket 4.4 23:22:41 21° SSE 23:25:41 44° ESE 23:30:36 10° NE
CARTOSAT-1 3.7 23:27:22 22° S 23:30:04 72° WSW 23:34:24 10° NNW
Cosmos 1452 Rocket 4.2 23:26:43 10° NNW 23:31:46 47° WSW 23:35:24 18° S
Cosmos 2360 Rocket 4.1 23:28:23 10° N 23:32:45 22° NE 23:37:06 10° E
Cosmos 1766 3.2 23:29:06 10° N 23:33:02 86° W 23:35:01 28° S
Tiangong 2 2.5 23:31:14 10° WSW 23:33:11 23° SSW 23:33:11 23° SSW
Cosmos 1544 3.2 23:30:54 10° N 23:34:30 59° ENE 23:35:56 32° SE
Cosmos 1980 Rocket 2.2 23:28:56 10° NNW 23:34:39 87° WSW 23:38:08 24° SSE
Landsat 7 4.5 23:31:19 17° S 23:34:46 49° W 23:39:25 10° NNW
Lacrosse 5 rocket 2.5 23:36:18 10° NW 23:40:49 49° NNE 23:45:12 11° E
Meteor 1-21 4.3 23:39:12 21° S 23:43:01 70° E 23:48:46 10° NNE
Meteor 2-16 Rocket 4.5 23:36:53 10° N 23:43:03 84° W 23:47:10 22° S
Cosmos 2322 Rocket 2.9 23:39:36 10° NNW 23:45:08 48° NE 23:48:59 19° ESE
SME Rocket 4.0 23:43:00 22° SE 23:45:43 43° ENE 23:49:31 10° N
Cosmos 1470 4.0 23:45:24 10° N 23:49:01 31° ENE 23:50:32 24° ESE
Terra 2.4 23:46:49 21° SSW 23:49:48 50° W 23:54:27 10° NNW
USA 267 4.0 23:45:16 10° ENE 23:50:51 29° SE 23:52:59 24° SSE
Nadezhda 3 Rocket 4.1 23:46:50 23° SSE 23:50:52 65° E 23:57:09 10° NNE
Cosmos 1758 Rocket 4.4 23:50:40 28° SE 23:52:05 36° E 23:56:04 10° NNE
Cosmos 1812 Rocket 4.0 23:48:49 10° NNW 23:53:14 56° W 23:55:42 24° SSW
H-2A R/B 3.0 23:52:19 21° SSW 23:54:59 44° W 23:59:20 10° NNW
PSLV R/B 4.0 23:56:05 31° SW 23:56:43 36° W 23:59:22 10° NNW
